Lamar, CO

11:11 PM MDT on April 24, 2018 (GMT -0600)
Lamar Municipal

Weather History for KLAA - December, 2013

Change the Weather History Date:

Tuesday, December 10, 2013

  Actual Average Record
Temperature  
Mean Temperature 24 °F 30 °F  
Max Temperature 51 °F 46 °F 71 °F (1929)
Min Temperature -4 °F 15 °F -17 °F (1919)
Degree Days  
Heating Degree Days 41 35  
Month to date heating degree days 421 332  
Since 1 July heating degree days 1489 1548  
Cooling Degree Days 0 0  
Month to date cooling degree days 0 0  
Year to date cooling degree days 1568 1121  
Moisture  
Dew Point 1 °F    
Average Humidity 44    
Maximum Humidity 79    
Minimum Humidity 9    
Precipitation  
Precipitation 0.00 in 0.02 in 0.28 in (1960)
Month to date precipitation T 0.13  
Year to date precipitation 10.32  
Sea Level Pressure  
Sea Level Pressure 30.21 in    
Wind  
Wind Speed 6 mph (South)    
Max Wind Speed 24 mph    
Max Gust Speed 31 mph    
Visibility 10 miles    
Events      
T = Trace of Precipitation, MM = Missing Value Source: NWS Daily Summary

Daily Weather History Graph

Daily Weather History Graph

Search for Another Location

Airport or City:

Astronomy

Dec. 10, 2013 Rise Set
Actual Time 6:56 AM MST 4:31 PM MST
Civil Twilight 6:26 AM MST 5:00 PM MST
Nautical Twilight 5:53 AM MST 5:33 PM MST
Astronomical Twilight 5:21 AM MST 6:05 PM MST
Moon 12:28 PM MST (12/10) 12:22 AM MST (12/10)
Length of Visible Light 10h 33m
Length of Day
9h 34m
Waxing Gibbous, 62% of the Moon is Illuminated
Dec 10
Waxing Gibbous
Dec 17
Full
Dec 25
Last Quarter
Jan 1
New
Jan 7
First Quarter

Hourly Weather History & Observations

Time (MST) Temp. Windchill Dew Point Humidity Pressure Visibility Wind Dir Wind Speed Gust Speed Precip Events Conditions
12:53 AM 3.9 °F - -4.0 °F 70% 30.32 in 10.0 mi Calm Calm - N/A   Clear
1:53 AM 1.0 °F -8.7 °F -6.0 °F 72% 30.35 in 10.0 mi WSW 4.6 mph - N/A   Clear
2:53 AM 3.0 °F -4.4 °F -5.1 °F 69% 30.34 in 10.0 mi SW 3.5 mph - N/A   Clear
3:53 AM 3.0 °F -9.3 °F -5.1 °F 69% 30.34 in 10.0 mi SW 6.9 mph - N/A   Clear
4:53 AM 6.1 °F -7.8 °F -2.9 °F 67% 30.32 in 10.0 mi WSW 9.2 mph - N/A   Clear
5:53 AM 1.9 °F - -5.1 °F 72% 30.36 in 10.0 mi Calm Calm - N/A   Clear
6:53 AM -2.9 °F -13.3 °F -8.0 °F 79% 30.37 in 9.0 mi SW 4.6 mph - N/A   Clear
7:53 AM 8.1 °F - -0.0 °F 70% 30.33 in 9.0 mi Calm Calm - N/A   Clear
8:53 AM 19.9 °F 12.1 °F 1.9 °F 46% 30.28 in 10.0 mi SSW 5.8 mph - N/A   Clear
9:53 AM 25.0 °F - 3.9 °F 41% 30.26 in 10.0 mi Calm Calm - N/A   Clear
10:53 AM 43.0 °F 38.2 °F -0.9 °F 16% 30.13 in 10.0 mi SW 8.1 mph - N/A   Clear
11:53 AM 48.0 °F - -6.0 °F 10% 30.07 in - WSW 9.2 mph - N/A   Clear
12:53 PM 48.9 °F - -2.9 °F 12% 30.04 in - North - - N/A   Clear
1:53 PM 51.1 °F - -5.1 °F 10% 30.01 in 10.0 mi Calm Calm - N/A   Clear
2:53 PM 51.1 °F - -5.1 °F 10% 30.00 in 10.0 mi Calm Calm - N/A   Clear
3:53 PM 43.0 °F 37.7 °F 3.0 °F 19% 30.02 in 10.0 mi ESE 9.2 mph - N/A   Clear
4:53 PM 35.1 °F 26.9 °F 3.0 °F 26% 30.03 in 10.0 mi SE 11.5 mph - N/A   Clear
5:53 PM 30.0 °F 23.2 °F 1.9 °F 30% 30.07 in 10.0 mi NE 6.9 mph - N/A   Clear
6:53 PM 25.0 °F 13.6 °F 3.0 °F 39% 30.17 in 10.0 mi NNE 12.7 mph - N/A   Clear
7:53 PM 34.0 °F 22.7 °F 12.0 °F 40% 30.17 in 10.0 mi NE 19.6 mph - N/A   Clear
8:53 PM 30.0 °F 21.1 °F 12.9 °F 49% 30.20 in 10.0 mi ENE 10.4 mph - N/A   Clear
9:53 PM 27.0 °F 18.0 °F 14.0 °F 58% 30.25 in 10.0 mi ENE 9.2 mph - N/A   Clear
10:53 PM 25.0 °F 16.3 °F 12.9 °F 60% 30.25 in 10.0 mi NE 8.1 mph - N/A   Clear
11:53 PM 16.0 °F - 8.1 °F 71% 30.30 in 10.0 mi Calm Calm - N/A   Clear